軌道要素
Epoch 2023 Feb. 25.0 TT = JDT 2460000.5
T 2023 Feb. 28.23175 TT Rudenko
q 3.3725329 (2000.0) P Q
n 0.09707054 Peri. 267.70555 -0.74107864 +0.60818380
a 4.6889732 Node 309.59564 -0.36800539 -0.72228880
e 0.2807524 Incl. 21.66341 -0.56158213 -0.32925880
P 10.2
>From 81 observations 2012 Mar. 21-2023 May 19.
|